[keps] orb10343.amsat
Ray Hoad
ray.hoad at mypbmail.com
Thu Dec 9 18:21:13 PST 2010
SB KEPS @ AMSAT $ORB10343.O
Orbital Elements 10343.OSCAR
HR AMSAT ORBITAL ELEMENTS FOR OSCAR SATELLITES
FROM WA5QGD FORT WORTH,TX December 9, 2010
Send Subscribe/unsubscribe to KEPS at http://www.amsat.org/mailman/listinfo/keps
BID: ORB10343.O
TO ALL RADIO AMATEURS BT
Satellite: AO-07
Catalog number: 07530
Epoch time: 10342.57917997
Element set: 0949
Inclination: 101.3969 deg
RA of node: 351.6420 deg
Eccentricity: 0.0011747
Arg of perigee: 293.1209 deg
Mean anomaly: 066.8621 deg
Mean motion: 12.53580448 rev/day
Decay rate: -2.7e-07 rev/day^2
Epoch rev: 65030
Checksum: 308
Satellite: FO-29
Catalog number: 24278
Epoch time: 10343.88817844
Element set: 459
Inclination: 098.5182 deg
RA of node: 148.7951 deg
Eccentricity: 0.0351080
Arg of perigee: 028.1881 deg
Mean anomaly: 333.7785 deg
Mean motion: 13.52955627 rev/day
Decay rate: -4.0e-08 rev/day^2
Epoch rev: 70686
Checksum: 349
Satellite: SO-33
Catalog number: 25509
Epoch time: 10343.76114642
Element set: 855
Inclination: 031.4325 deg
RA of node: 235.6176 deg
Eccentricity: 0.0352943
Arg of perigee: 025.0627 deg
Mean anomaly: 336.6714 deg
Mean motion: 14.28346152 rev/day
Decay rate: 2.27e-06 rev/day^2
Epoch rev: 63317
Checksum: 290
Satellite: RS-22
Catalog number: 27939
Epoch time: 10343.63623771
Element set: 795
Inclination: 097.8652 deg
RA of node: 201.4291 deg
Eccentricity: 0.0012714
Arg of perigee: 222.2875 deg
Mean anomaly: 137.7345 deg
Mean motion: 14.63486392 rev/day
Decay rate: 9.0e-07 rev/day^2
Epoch rev: 38461
Checksum: 318
Satellite: VO-52
Catalog number: 28650
Epoch time: 10343.83739860
Element set: 665
Inclination: 097.6698 deg
RA of node: 030.1965 deg
Eccentricity: 0.0028107
Arg of perigee: 063.1081 deg
Mean anomaly: 297.3031 deg
Mean motion: 14.81869682 rev/day
Decay rate: 6.15e-06 rev/day^2
Epoch rev: 30270
Checksum: 318
Satellite: SO-67
Catalog number: 35870
Epoch time: 10343.70883771
Element set: 363
Inclination: 097.3098 deg
RA of node: 027.9857 deg
Eccentricity: 0.0002473
Arg of perigee: 171.2705 deg
Mean anomaly: 337.4882 deg
Mean motion: 15.21226406 rev/day
Decay rate: 8.19e-06 rev/day^2
Epoch rev: 6813
Checksum: 323
Satellite: HO-68
Catalog number: 36122
Epoch time: 10343.75082074
Element set: 917
Inclination: 100.4477 deg
RA of node: 042.2160 deg
Eccentricity: 0.0007134
Arg of perigee: 298.4101 deg
Mean anomaly: 061.6299 deg
Mean motion: 13.16282930 rev/day
Decay rate: -4.5e-07 rev/day^2
Epoch rev: 4731
Checksum: 271
/EX
SB KEPS @ AMSAT $ORB10343.D
Orbital Elements 10343.MICROS
HR AMSAT ORBITAL ELEMENTS FOR THE MICROSATS
FROM WA5QGD FORT WORTH,TX December 9, 2010
Send Subscribe/unsubscribe to KEPS at http://www.amsat.org/mailman/listinfo/keps
BID: ORB10343.D
TO ALL RADIO AMATEURS BT
Satellite: UO-11
Catalog number: 14781
Epoch time: 10343.68896955
Element set: 413
Inclination: 098.0324 deg
RA of node: 035.7293 deg
Eccentricity: 0.0009774
Arg of perigee: 036.9475 deg
Mean anomaly: 323.2394 deg
Mean motion: 14.79866718 rev/day
Decay rate: -4.5e-07 rev/day^2
Epoch rev: 43776
Checksum: 345
Satellite: AO-16
Catalog number: 20439
Epoch time: 10343.79426921
Element set: 64
Inclination: 098.3587 deg
RA of node: 295.0108 deg
Eccentricity: 0.0011168
Arg of perigee: 010.5705 deg
Mean anomaly: 349.5713 deg
Mean motion: 14.31886633 rev/day
Decay rate: 1.7e-07 rev/day^2
Epoch rev: 9051
Checksum: 295
Satellite: LO-19
Catalog number: 20442
Epoch time: 10343.83379606
Element set: 973
Inclination: 098.3220 deg
RA of node: 300.1460 deg
Eccentricity: 0.0011845
Arg of perigee: 004.3143 deg
Mean anomaly: 355.8145 deg
Mean motion: 14.32115449 rev/day
Decay rate: 7.8e-07 rev/day^2
Epoch rev: 9069
Checksum: 281
Satellite: AO-27
Catalog number: 22825
Epoch time: 10342.88302338
Element set: 0695
Inclination: 098.5098 deg
RA of node: 286.4975 deg
Eccentricity: 0.0009206
Arg of perigee: 112.7939 deg
Mean anomaly: 247.4226 deg
Mean motion: 14.29318334 rev/day
Decay rate: -6.6e-07 rev/day^2
Epoch rev: 89700
Checksum: 335
Satellite: IO-26
Catalog number: 22826
Epoch time: 10343.40701540
Element set: 432
Inclination: 098.5029 deg
RA of node: 287.5478 deg
Eccentricity: 0.0009810
Arg of perigee: 106.8296 deg
Mean anomaly: 253.3952 deg
Mean motion: 14.29577301 rev/day
Decay rate: 6.0e-08 rev/day^2
Epoch rev: 89719
Checksum: 313
Satellite: GO-32
Catalog number: 25397
Epoch time: 10342.80914241
Element set: 351
Inclination: 098.3168 deg
RA of node: 340.6751 deg
Eccentricity: 0.0002200
Arg of perigee: 103.9550 deg
Mean anomaly: 256.1866 deg
Mean motion: 14.23191901 rev/day
Decay rate: 9.9e-07 rev/day^2
Epoch rev: 64488
Checksum: 291
Satellite: NO-44
Catalog number: 26931
Epoch time: 10343.80353463
Element set: 626
Inclination: 067.0514 deg
RA of node: 111.4988 deg
Eccentricity: 0.0006282
Arg of perigee: 278.7623 deg
Mean anomaly: 081.2793 deg
Mean motion: 14.29625098 rev/day
Decay rate: 1.66e-06 rev/day^2
Epoch rev: 47985
Checksum: 326
Satellite: SO-50
Catalog number: 27607
Epoch time: 10343.88343273
Element set: 338
Inclination: 064.5568 deg
RA of node: 182.8270 deg
Eccentricity: 0.0050479
Arg of perigee: 008.5200 deg
Mean anomaly: 351.6744 deg
Mean motion: 14.71616963 rev/day
Decay rate: 1.14e-06 rev/day^2
Epoch rev: 42823
Checksum: 301
Satellite: CO-55
Catalog number: 27844
Epoch time: 10343.52636697
Element set: 995
Inclination: 098.7085 deg
RA of node: 349.9839 deg
Eccentricity: 0.0010430
Arg of perigee: 029.3694 deg
Mean anomaly: 330.8065 deg
Mean motion: 14.20752854 rev/day
Decay rate: 1.04e-06 rev/day^2
Epoch rev: 38598
Checksum: 347
Satellite: CO-57
Catalog number: 27848
Epoch time: 10343.51134282
Element set: 944
Inclination: 098.7134 deg
RA of node: 349.1009 deg
Eccentricity: 0.0010290
Arg of perigee: 033.7671 deg
Mean anomaly: 326.4149 deg
Mean motion: 14.20540193 rev/day
Decay rate: 6.0e-07 rev/day^2
Epoch rev: 38593
Checksum: 295
Satellite: AO-51
Catalog number: 28375
Epoch time: 10343.86051192
Element set: 843
Inclination: 098.0764 deg
RA of node: 327.5009 deg
Eccentricity: 0.0083479
Arg of perigee: 285.0618 deg
Mean anomaly: 074.1341 deg
Mean motion: 14.40714575 rev/day
Decay rate: 5.4e-07 rev/day^2
Epoch rev: 33880
Checksum: 310
Satellite: CP3
Catalog number: 31129
Epoch time: 10343.07651385
Element set: 743
Inclination: 097.9223 deg
RA of node: 013.1127 deg
Eccentricity: 0.0103273
Arg of perigee: 051.6090 deg
Mean anomaly: 309.4294 deg
Mean motion: 14.52346923 rev/day
Decay rate: 1.85e-06 rev/day^2
Epoch rev: 19324
Checksum: 275
Satellite: CO-65
Catalog number: 32785
Epoch time: 10342.32572584
Element set: 0857
Inclination: 097.8773 deg
RA of node: 044.6474 deg
Eccentricity: 0.0016075
Arg of perigee: 078.8969 deg
Mean anomaly: 281.4049 deg
Mean motion: 14.81780028 rev/day
Decay rate: -4.4e-07 rev/day^2
Epoch rev: 14127
Checksum: 340
Satellite: KKS-1
Catalog number: 33493
Epoch time: 10343.70249679
Element set: 112
Inclination: 098.1038 deg
RA of node: 104.9210 deg
Eccentricity: 0.0018797
Arg of perigee: 295.1714 deg
Mean anomaly: 064.7560 deg
Mean motion: 14.81231835 rev/day
Decay rate: 5.77e-06 rev/day^2
Epoch rev: 10146
Checksum: 294
Satellite: SOHLA-1
Catalog number: 33496
Epoch time: 10342.74492291
Element set: 0276
Inclination: 098.0702 deg
RA of node: 089.6848 deg
Eccentricity: 0.0006855
Arg of perigee: 018.0654 deg
Mean anomaly: 342.0819 deg
Mean motion: 14.69539491 rev/day
Decay rate: 5.8e-07 rev/day^2
Epoch rev: 10051
Checksum: 315
Satellite: TISAT-1
Catalog number: 36799
Epoch time: 10343.68016723
Element set: 386
Inclination: 098.1281 deg
RA of node: 044.8680 deg
Eccentricity: 0.0015766
Arg of perigee: 164.7196 deg
Mean anomaly: 195.4508 deg
Mean motion: 14.80255789 rev/day
Decay rate: 4.34e-06 rev/day^2
Epoch rev: 2227
Checksum: 329
Satellite: STUDSAT
Catalog number: 36801
Epoch time: 10343.32555896
Element set: 102
Inclination: 098.1298 deg
RA of node: 044.3885 deg
Eccentricity: 0.0014115
Arg of perigee: 155.0232 deg
Mean anomaly: 205.1666 deg
Mean motion: 14.79860387 rev/day
Decay rate: 1.036e-05 rev/day^2
Epoch rev: 2221
Checksum: 278
/EX
SB KEPS @ AMSAT $ORB10343.W
Orbital Elements 10343.WEATHER
HR AMSAT ORBITAL ELEMENTS FOR WEATHER SATELLITES
FROM WA5QGD FORT WORTH,TX December 9, 2010
Send Subscribe/unsubscribe to KEPS at http://www.amsat.org/mailman/listinfo/keps
BID: ORB10343.W
TO ALL RADIO AMATEURS BT
Satellite: NOAA-10
Catalog number: 16969
Epoch time: 10342.62186645
Element set: 0307
Inclination: 098.6399 deg
RA of node: 009.8060 deg
Eccentricity: 0.0013133
Arg of perigee: 063.2841 deg
Mean anomaly: 296.9690 deg
Mean motion: 14.27437010 rev/day
Decay rate: 4.5e-07 rev/day^2
Epoch rev: 26046
Checksum: 300
Satellite: NOAA-11
Catalog number: 19531
Epoch time: 10342.83408192
Element set: 0315
Inclination: 098.7642 deg
RA of node: 068.8379 deg
Eccentricity: 0.0011646
Arg of perigee: 015.3317 deg
Mean anomaly: 344.8212 deg
Mean motion: 14.14897782 rev/day
Decay rate: -1.88e-06 rev/day^2
Epoch rev: 14583
Checksum: 314
Satellite: NOAA-12
Catalog number: 21263
Epoch time: 10342.75564861
Element set: 0804
Inclination: 098.7586 deg
RA of node: 355.8540 deg
Eccentricity: 0.0012743
Arg of perigee: 024.1601 deg
Mean anomaly: 336.0157 deg
Mean motion: 14.25671962 rev/day
Decay rate: -2.7e-07 rev/day^2
Epoch rev: 01727
Checksum: 291
Satellite: MET-3/5
Catalog number: 21655
Epoch time: 10342.90840334
Element set: 0984
Inclination: 082.5551 deg
RA of node: 185.1936 deg
Eccentricity: 0.0012417
Arg of perigee: 273.9618 deg
Mean anomaly: 086.0095 deg
Mean motion: 13.17028379 rev/day
Decay rate: 5.1e-07 rev/day^2
Epoch rev: 92867
Checksum: 317
Satellite: MET-2/21
Catalog number: 22782
Epoch time: 10342.85610294
Element set: 0960
Inclination: 082.5467 deg
RA of node: 113.8869 deg
Eccentricity: 0.0020918
Arg of perigee: 273.3319 deg
Mean anomaly: 086.5466 deg
Mean motion: 13.83651279 rev/day
Decay rate: 3.0e-07 rev/day^2
Epoch rev: 87223
Checksum: 318
